Regional Weather Roundup
Issued by NWS

Home | Current Version | Previous Version | Text Only | Print | Product List | Glossary On
Versions: 1 2 3 4 5 6 7 8 9 10 11 12 13 14 15 16 17 18 19 20 21 22 23 24 25 26 27 28
000
ASUS44 KBMX 241210
RWRAL

ALABAMA REGIONAL WEATHER ROUNDUP
NATIONAL WEATHER SERVICE BIRMINGHAM AL
600 AM CST FRI FEB 24 2017

NOTE: "FAIR" INDICATES FEW OR NO CLOUDS BELOW 12,000 FEET
WITH NO SIGNIFICANT WEATHER AND/OR OBSTRUCTIONS TO VISIBILITY.

THE REMARK "TC" DENOTES TEMPERATURE IN DEGREES CELSIUS.

ALZ001>011-014-016>018-020-241300-
NORTH ALABAMA

CITY           SKY/WX    TMP DP  RH WIND       PRES   REMARKS
MUSCLE SHOALS  CLEAR     59  55  87 S5        29.79R
6HR MIN TEMP:  59; 6HR MAX TEMP:  63;

HUNTSVILLE     CLEAR     59  56  89 SE7       29.81R
6HR MIN TEMP:  58; 6HR MAX TEMP:  62;

DECATUR        CLEAR     57  56  96 SE7       29.81R
6HR MIN TEMP:  56; 6HR MAX TEMP:  60;

HALEYVILLE     FAIR      57  55  93 S7        29.81S
6HR MIN TEMP:  57; 6HR MAX TEMP:  61;

GADSDEN        CLEAR     48  48 100 CALM      29.86S
6HR MIN TEMP:  47; 6HR MAX TEMP:  54;

$$

ALZ012-013-022-023-030>036-040>044-241300-
WEST CENTRAL ALABAMA

CITY           SKY/WX    TMP DP  RH WIND       PRES   REMARKS
TUSCALOOSA     CLEAR     52  52 100 CALM      29.82F
6HR MIN TEMP:  50; 6HR MAX TEMP:  62;

$$

ALZ015-024>027-033>036-040>044-241300-
CENTRAL ALABAMA

CITY           SKY/WX    TMP DP  RH WIND       PRES   REMARKS
BIRMINGHAM     CLEAR     60  56  86 SE5       29.86R
6HR MIN TEMP:  57; 6HR MAX TEMP:  66;

MONTGOMERY     CLEAR     55  50  83 CALM      29.86R
6HR MIN TEMP:  55; 6HR MAX TEMP:  65;

SHELBY CO ARPT CLEAR     55  55 100 CALM      29.85R
6HR MIN TEMP:  54; 6HR MAX TEMP:  62;

MAXWELL AFB    CLEAR     55  55 100 NE3       29.86R
6HR MIN TEMP:  55; 6HR MAX TEMP:  61;

GREENVILLE     FAIR      52  50  93 CALM      29.85R FOG
6HR MIN TEMP:  51; 6HR MAX TEMP:  59;

$$

ALZ019-021-028-029-037-038-045>048-241300-
EAST CENTRAL ALABAMA

CITY           SKY/WX    TMP DP  RH WIND       PRES   REMARKS
ANNISTON       CLEAR     53  51  93 CALM      29.87S
6HR MIN TEMP:  52; 6HR MAX TEMP:  58;

ALEXANDER CITY CLEAR     51  50  97 CALM      29.87S
6HR MIN TEMP:  50; 6HR MAX TEMP:  55;

AUBURN         CLEAR     58  56  93 E3        29.90R
6HR MIN TEMP:  57; 6HR MAX TEMP:  63;

$$

ALZ051>064-241300-
SOUTHWEST ALABAMA

CITY           SKY/WX    TMP DP  RH WIND       PRES   REMARKS
MOBILE         FOG       62  60  93 SE3       29.82R VSB 1/4
6HR MIN TEMP:  61; 6HR MAX TEMP:  62;

BROOKLEY FIELD FOG       62  62 100 CALM      29.83R VSB 1/4
6HR MIN TEMP:  56; 6HR MAX TEMP:  62;

EVERGREEN      FOG       55  54  96 NW3       29.85R VSB 1/2
6HR MIN TEMP:  53; 6HR MAX TEMP:  57;

$$

ALZ049-050-065>069-241300-
SOUTHEAST ALABAMA

CITY           SKY/WX    TMP DP  RH WIND       PRES   REMARKS
DOTHAN         PTCLDY    57  57 100 CALM      29.89R
6HR MIN TEMP:  57; 6HR MAX TEMP:  65;

OZARK          PTCLDY    56  56 100 NE3       29.85R
6HR MIN TEMP:  54; 6HR MAX TEMP:  59;

TROY           PTCLDY    53  52  96 CALM      29.87R
6HR MIN TEMP:  53; 6HR MAX TEMP:  59;

EUFAULA        FAIR      53  52  96 CALM      29.87R
6HR MIN TEMP:  53; 6HR MAX TEMP:  57;

$$




USA.gov is the U.S. government's official web portal to all federal, state and local government web resources and services.